View from above orbital plane
|
View from above satellite
|
Ground track
|
The orbit data is extracted from the following two-line orbital elements,
1 44064U 19011B 21016.78396253 .00026471 00000-0 18240-3 0 9991
2 44064 51.6312 305.8601 0004298 128.1329 232.0058 15.74406916106392
Epoch (UTC): | 16 January 2021 18:48:54 |
Eccentricity: | 0.0004298 |
inclination: | 51.6312° |
perigee height: | 343 km |
apogee height: | 349 km |
right ascension of ascending node: | 305.8601° |
argument of perigee: | 128.1329° |
revolutions per day: | 15.74406916 |
mean anomaly at epoch: | 232.0058° |
orbit number at epoch: | 10639 |
The dashed part of the orbit path shows where the satellite is in the earth's shadow,
|
|